Regional Weather Roundup
Issued by NWS Cleveland, OH

Home | Current Version | Previous Version | Graphics & Text | Print | Product List | Glossary On
Versions: 1 2 3 4 5 6 7 8 9 10 11 12 13 14 15 16 17 18 19 20 21 22 23 24 25 26 27 28 29 30 31 32 33 34 35 36 37 38 39 40 41 42 43 44 45 46 47 48 49 50
000
ASUS41 KCLE 291710
RWRCLE
OHIO REGIONAL WEATHER ROUNDUP
NATIONAL WEATHER SERVICE CLEVELAND, OH
100 PM EDT FRI MAY 29 2015

NOTE: "FAIR" INDICATES FEW OR NO CLOUDS BELOW 12,000 FEET WITH NO
SIGNIFICANT WEATHER AND/OR OBSTRUCTIONS TO VISIBILITY.

OHZ001>008-015>018-024>027-034-035-043-044-291800-
   NORTHWEST OHIO

CITY           SKY/WX    TMP DP  RH WIND       PRES   REMARKS
DEFIANCE       MOSUNNY   78  66  66 S8        30.12F
FINDLAY        PTSUNNY   79  70  74 S13       30.13F
TOLEDO EXPRESS PTSUNNY   77  68  73 SE8       30.11F
TOLEDO EXEC    CLOUDY    72  68  87 S7        30.14F
LIMA           CLOUDY    78  66  66 S14G20    30.14F
$$

OHZ009>014-019>023-028>033-038-089-291800-
   NORTHEAST OHIO

CITY           SKY/WX    TMP DP  RH WIND       PRES   REMARKS
CLE-HOPKINS    CLOUDY    81  64  56 S15       30.16S
CLE-LAKEFRONT  PTSUNNY   83  63  50 S15G23    30.12F
CUY CO. ARPT   PTSUNNY   82  68  61 SW12      30.16S
LORAIN-ELYRIA  CLOUDY    82  65  56 S16G24    30.14F
ASHTABULA      PTSUNNY   79  63  57 S12       30.18F
AKRON-CANTON   PTSUNNY   82  63  52 S12       30.17F
WOOSTER        PTSUNNY   79  66  64 S13       30.18S
MANSFIELD      PTSUNNY   80  65  59 S16G22    30.17S
YOUNGSTOWN     CLOUDY    81  63  54 SE12      30.18F
$$

OHZ042-051>053-060>062-070>072-077>081-291800-
  SOUTHWEST OHIO

CITY           SKY/WX    TMP DP  RH WIND       PRES   REMARKS
CINC-COVINGTON CLOUDY    77  66  68 S9G17     30.18S
CINC-LUNKEN    PTSUNNY   78  68  71 S8        30.18S
HAMILTON       CLOUDY    78  67  68 SW9       30.18R
DAYTON         CLOUDY    79  67  66 S15       30.17S
WRIGHT-PAT AFB CLOUDY    79  67  65 SW15      30.16S
DAYTON GENERAL PTSUNNY   77  66  68 SW14G23   30.17S
WILMINGTON     PTSUNNY   79  64  60 SW13      30.18R
$$

OHZ036-037-039>041-045>050-054>059-063>069-073>076-082>088-291800-
  CENTRAL AND SOUTHEAST OHIO

CITY           SKY/WX    TMP DP  RH WIND       PRES   REMARKS
COLUMBUS       CLOUDY    80  64  58 S8        30.17R
OSU AIRPORT    PTSUNNY   83  64  52 S15G23    30.15F
BOLTON FIELD   SUNNY     82  66  57 S13G22    30.17S
RICKENBACK AFB PTSUNNY   80  65  61 S14G20    30.16F
NEWARK         PTSUNNY   81  67  62 SW8       30.17S
MARION         PTSUNNY   82  64  54 S15       30.15S
LANCASTER      CLOUDY    79  64  60 SW8       30.19R
ZANESVILLE     NOT AVBL
NEW PHILLY     PTSUNNY   84  66  54 S8G16     30.17F
$$


USA.gov is the U.S. government's official web portal to all federal, state and local government web resources and services.